Regional Weather Roundup
Issued by NWS Bismarck, ND

Home | Current Version | Previous Version | Text Only | Print | Product List | Glossary On
Versions: 1 2 3 4 5 6 7 8 9 10 11 12 13 14 15 16 17 18 19 20 21 22 23 24 25 26 27 28 29 30 31 32 33 34 35 36 37 38 39 40 41 42 43 44 45 46 47 48 49 50
629
ASUS43 KBIS 250610
RWRBIS

NWR BROADCAST TEXT
NATIONAL WEATHER SERVICE BISMARCK ND
1200 AM CST SAT FEB 25 2017

NOTE: "FAIR" INDICATES FEW OR NO CLOUDS BELOW 12,000 FEET WITH NO
SIGNIFICANT WEATHER AND/OR OBSTRUCTIONS TO VISIBILITY.


CITY           SKY/WX    TMP DP  RH WIND       PRES   REMARKS
WILLISTON      LGT SNOW  23  19  85 S3        30.02F FOG
MINOT          CLOUDY    23  16  74 S7        30.00F WCI  15
MINOT AFB      NOT AVBL
BISMARCK       MOCLDY    18  15  88 CALM      30.07F
DICKINSON      FAIR      17  13  84 S6        29.99F WCI   9
GARRISON         N/A     14  10  84 S3        30.02F
HETTINGER ARPT MOCLDY    20  14  77 SE3       30.03F
JAMESTOWN      FAIR      15  12  88 W5        30.06F WCI   8
CARRINGTON     MOCLDY    16  14  93 W7        30.06F WCI   6
HAZEN            N/A    N/A N/A N/A CALM      30.06F
MANDAN         CLOUDY    19  16  86 SW5       30.06F WCI  13
RUGBY            N/A     14  10  85 SW7       30.02F WCI   4
STANLEY        LGT SNOW  23  23 100 W10       30.01S WCI  12
TIOGA          CLOUDY    23  21  93 SW10      30.00F WCI  12
WATFORD CITY   MIX PCPN  19  18  93 CALM      30.02S
$$

CITY           SKY/WX    TMP DP  RH WIND       PRES   REMARKS
GRAND FORKS    FAIR      16   8  71 CALM      30.07F
GRAND FORKS AF FAIR      14  11  85 CALM      30.07F
DEVILS LAKE    FAIR      15  12  88 SW5       30.04F WCI   8
FARGO          FAIR      17  12  80 NW8       30.08F WCI   7
CAVALIER         N/A      9   7  92 SW3       30.07F
GRAFTON        FAIR      12  12 100 CALM      30.10S
GWINNER        FAIR      19  16  86 NW8       30.08F WCI   9
ROLLA          CLOUDY    14   9  79 SW14      29.98F WCI  -1
$$

CITY           SKY/WX    TMP DP  RH WIND       PRES   REMARKS
ABERDEEN       FAIR      16  11  80 NW7       30.10F WCI   6
MOBRIDGE       CLOUDY    22  15  75 SE3       30.06F
BUFFALO          N/A     22  14  71 W6        29.93F WCI  14
RAPID CITY     FAIR      13   9  84 CALM      30.01F
GLASGOW        FAIR      23  19  85 N6        30.03S WCI  16
SIDNEY         LGT SNOW  27  21  80 N3        30.03F FOG
WOLF POINT     LGT SNOW  28  25  88 CALM      30.04F FOG
GLENDIVE       CLOUDY    27  21  78 SW6       30.01F
MILES CITY     CLOUDY    28  20  71 W6        30.02S
BAKER          FAIR      21  14  74 SW5       30.00F WCI  15
$$

CITY           SKY/WX    TMP DP  RH WIND       PRES   REMARKS
BILLINGS       MOCLDY    22  18  85 NW8       30.03S WCI  12
GREAT FALLS    CLOUDY    23  18  81 CALM      30.04F
REGINA         PTCLDY    12   9  85 W8        30.01S WCI   1
ESTEVAN        MOCLDY    21  19  93 NW14      29.99S WCI   8
$$





USA.gov is the U.S. government's official web portal to all federal, state and local government web resources and services.